Home   Weather   Tianjin   Past weeks

Flag for China Past Weather in Tianjin, Tianjin Municipality, China — Yesterday and Last 2 Weeks

Now
27 °F

Ice fog.


Feels Like: 27 °F
Forecast: 24 / 44 °F
Wind: No wind

Location: Tianjin / Zhangguizhu

Current Time: Dec 11, 2016 at 6:27:29 am

Latest Report: Dec 11, 2016 at 6:00 am


Visibility: 1 mi

Pressure: 30.36 "Hg

Humidity: 86%

Dew Point: 23 °F

Location of TianjinLocation

Past Weather in Tianjin — Graph

°F

Tianjin Temperature Yesterday

Maximum temperature yesterday: 43 °F (at 1:00 pm)
Minimum temperature yesterday: 23 °F (at 3:30 am)
Average temperature yesterday: 32 °F

High & Low Weather Summary for the Past Weeks

 TemperatureHumidityPressure
High52 °F (Dec 2, 2:30 pm)100% (Dec 4, 2:00 am)30.60 "Hg (Dec 4, 2:00 am)
Low23 °F (Dec 10, 3:30 am)13% (Dec 5, 3:30 pm)29.95 "Hg (Dec 8, 12:00 pm)
Average37 °F58%30.30 "Hg
* Reported Nov 26 5:00 am — Dec 11 5:00 am, Tianjin, Weather by CustomWeather, © 2016

Note: Actual official high and low records may vary slightly from our data, if they occured in-between our weather recording intervals... More about our weather records

Advertising

Tianjin Weather History for the Previous 24 Hours

Scroll right to see more
 ConditionsComfort  
Time TempWeatherWind HumidityBarometerVisibility
5:00 am
Sun, Dec 11
23 °FIce fog.1 mph93%30.36 "Hg1 mi
4:00 am25 °FIce fog.No wind86%30.39 "Hg1 mi
3:30 am25 °FIce fog.1 mph86%30.39 "Hg1 mi
3:00 am27 °FIce fog.1 mph86%30.39 "Hg1 mi
2:30 am28 °FIce fog.3 mph80%30.39 "Hg1 mi
2:00 am25 °FIce fog.3 mph93%30.42 "Hg1 mi
1:30 am27 °FIce fog.1 mph80%30.42 "Hg1 mi
1:00 am27 °FIce fog.1 mph74%30.42 "Hg1 mi
12:30 am27 °FIce fog.1 mph74%30.42 "Hg1 mi
12:00 am27 °FIce fog.1 mph74%30.42 "Hg2 mi
11:30 pm
Sat, Dec 10
28 °FIce fog.1 mph69%30.42 "Hg2 mi
11:00 pm25 °FIce fog.1 mph80%30.39 "Hg2 mi
10:30 pm25 °FHaze.1 mph80%30.39 "Hg2 mi
10:00 pm28 °FHaze.1 mph69%30.39 "Hg1 mi
9:30 pm28 °FHaze.1 mph69%30.42 "Hg1 mi
9:00 pm30 °FHaze.1 mph64%30.39 "Hg2 mi
8:30 pm30 °FHaze.1 mph59%30.39 "Hg2 mi
8:00 pm30 °FHaze.1 mph55%30.42 "Hg3 mi
7:30 pm30 °FHaze.1 mph55%30.39 "Hg3 mi
7:00 pm32 °FHaze.1 mph51%30.42 "Hg3 mi
6:30 pm32 °FClear.No wind47%30.39 "Hg4 mi
6:00 pm36 °FClear.3 mph38%30.39 "Hg4 mi
5:30 pm37 °FClear.1 mph35%30.36 "Hg4 mi
5:00 pm37 °FClear.No wind35%30.36 "Hg4 mi
4:30 pm39 °FClear.1 mph33%30.36 "Hg4 mi
4:00 pm41 °FClear.1 mph31%30.36 "Hg4 mi
3:30 pm41 °FClear.3 mph33%30.36 "Hg5 mi
3:00 pm43 °FClear.6 mph29%30.36 "Hg5 mi
2:30 pm43 °FClear.6 mph29%30.39 "Hg4 mi
2:00 pm43 °FClear.6 mph29%30.39 "Hg4 mi
1:30 pm43 °FClear.3 mph26%30.39 "Hg4 mi
1:00 pm43 °FClear.3 mph29%30.39 "Hg4 mi
12:30 pm41 °FClear.3 mph28%30.39 "Hg5 mi
12:00 pm41 °FClear.6 mph28%30.42 "Hg5 mi
11:30 am39 °FHaze.3 mph36%30.42 "Hg2 mi
11:00 am39 °FHaze.1 mph42%30.45 "Hg2 mi
10:30 am37 °FHaze.1 mph45%30.45 "Hg2 mi
10:00 am36 °FHaze.1 mph52%30.45 "Hg2 mi
9:30 am36 °FHaze.No wind56%30.45 "Hg2 mi
9:00 am30 °FHaze.1 mph75%30.45 "Hg2 mi
8:30 am30 °FIce fog.1 mph69%30.42 "Hg2 mi
8:00 am25 °FIce fog.No wind80%30.42 "Hg2 mi
7:30 am25 °FIce fog.1 mph74%30.42 "Hg2 mi
7:00 am25 °FIce fog.1 mph74%30.42 "Hg2 mi
6:30 am23 °FIce fog.1 mph80%30.42 "Hg2 mi
6:00 am23 °FIce fog.No wind86%30.42 "Hg2 mi
Weather by CustomWeather, © 2016

See weather overviewHow to use our weather pages